Time,TemperatureF,DewpointF,PressureIn,WindDirection,WindDirectionDegrees,WindSpeedMPH,WindSpeedGustMPH,Humidity,HourlyPrecipIn,Conditions,Clouds,dailyrainin,SoftwareType,DateUTC
2013-07-27 00:00:00,68.9,68.6,29.92,ESE,112,0.0,2.0,99,0.07,,,-99.99,WeatherLink 6.0.0,2013-07-27 04:00:00,
2013-07-27 00:01:00,73.0,69.9,29.95,South,172,0.0,0.0,90,0.00,,,0.04,Wunderground v.1.15,2013-07-27 04:01:00,
2013-07-27 00:02:00,73.0,69.9,29.95,South,172,0.0,0.0,90,0.00,,,0.04,Wunderground v.1.15,2013-07-27 04:02:00,
2013-07-27 00:03:00,73.0,69.9,29.95,South,172,0.0,0.0,90,0.00,,,0.04,Wunderground v.1.15,2013-07-27 04:03:00,
2013-07-27 00:06:00,73.0,69.9,29.95,South,172,0.0,0.0,90,0.00,,,0.04,Wunderground v.1.15,2013-07-27 04:06:00,
2013-07-27 00:11:00,72.9,69.8,29.95,South,172,0.0,0.0,90,0.00,,,0.04,Wunderground v.1.15,2013-07-27 04:11:00,
2013-07-27 00:17:00,72.7,69.6,29.95,South,172,0.0,0.0,90,0.00,,,0.04,Wunderground v.1.15,2013-07-27 04:17:00,
2013-07-27 00:22:00,72.6,69.8,29.95,South,172,0.0,0.0,91,0.00,,,0.04,Wunderground v.1.15,2013-07-27 04:22:00,
2013-07-27 00:28:00,72.4,69.6,29.95,South,172,0.0,0.0,91,0.00,,,0.04,Wunderground v.1.15,2013-07-27 04:28:00,
2013-07-27 00:30:00,69.5,69.2,29.92,ESE,112,0.0,1.0,99,0.06,,,-99.99,WeatherLink 6.0.0,2013-07-27 04:30:00,
2013-07-27 00:33:00,72.2,69.7,29.95,South,172,0.0,0.0,92,0.00,,,0.04,Wunderground v.1.15,2013-07-27 04:33:00,
2013-07-27 00:38:00,72.0,69.5,29.95,South,172,0.0,0.0,92,0.00,,,0.04,Wunderground v.1.15,2013-07-27 04:38:00,
2013-07-27 00:44:00,71.7,68.9,29.95,South,172,0.0,0.0,91,0.00,,,0.04,Wunderground v.1.15,2013-07-27 04:44:00,
2013-07-27 00:49:00,71.5,69.1,29.95,South,172,0.0,0.0,92,0.00,,,0.04,Wunderground v.1.15,2013-07-27 04:49:00,
2013-07-27 00:55:00,71.4,69.3,29.95,South,172,0.0,0.0,93,0.00,,,0.04,Wunderground v.1.15,2013-07-27 04:55:00,
2013-07-27 01:00:00,71.3,68.9,29.95,South,172,0.0,0.0,92,0.00,,,0.04,Wunderground v.1.15,2013-07-27 05:00:00,
2013-07-27 01:06:00,71.2,69.1,29.95,South,172,0.0,0.0,93,0.00,,,0.04,Wunderground v.1.15,2013-07-27 05:06:00,
2013-07-27 01:12:00,71.1,69.0,29.95,South,172,0.0,0.0,93,0.00,,,0.04,Wunderground v.1.15,2013-07-27 05:12:00,
2013-07-27 01:17:00,71.1,69.0,29.95,South,172,0.0,0.0,93,0.00,,,0.04,Wunderground v.1.15,2013-07-27 05:17:00,
2013-07-27 01:23:00,71.1,69.0,29.94,South,172,0.0,0.0,93,0.00,,,0.04,Wunderground v.1.15,2013-07-27 05:23:00,
2013-07-27 01:28:00,71.1,69.0,29.94,South,172,0.0,0.0,93,0.00,,,0.04,Wunderground v.1.15,2013-07-27 05:28:00,
2013-07-27 01:30:00,69.8,69.5,29.91,ESE,112,0.0,5.0,99,0.07,,,-99.99,WeatherLink 6.0.0,2013-07-27 05:30:00,
2013-07-27 01:34:00,71.2,69.1,29.94,South,172,0.0,0.0,93,0.00,,,0.04,Wunderground v.1.15,2013-07-27 05:34:00,
2013-07-27 01:39:00,71.2,69.1,29.94,South,172,0.0,0.0,93,0.00,,,0.04,Wunderground v.1.15,2013-07-27 05:39:00,
2013-07-27 01:44:00,71.0,68.9,29.94,South,172,0.0,0.0,93,0.00,,,0.04,Wunderground v.1.15,2013-07-27 05:44:00,
2013-07-27 01:50:00,70.9,68.8,29.94,South,172,0.0,0.0,93,0.00,,,0.04,Wunderground v.1.15,2013-07-27 05:50:00,
2013-07-27 01:56:00,70.8,68.7,29.93,South,172,0.0,0.0,93,0.00,,,0.04,Wunderground v.1.15,2013-07-27 05:56:00,
2013-07-27 02:00:00,69.7,69.4,29.93,ESE,112,0.0,4.0,99,0.01,,,-99.99,WeatherLink 6.0.0,2013-07-27 06:00:00,
2013-07-27 02:01:00,70.8,68.7,29.93,South,172,0.0,0.0,93,0.00,,,0.04,Wunderground v.1.15,2013-07-27 06:01:00,
2013-07-27 02:06:00,70.8,68.7,29.93,South,172,0.0,0.0,93,0.00,,,0.04,Wunderground v.1.15,2013-07-27 06:06:00,
2013-07-27 02:11:00,70.8,68.7,29.92,South,172,0.0,0.0,93,0.00,,,0.04,Wunderground v.1.15,2013-07-27 06:11:00,
2013-07-27 02:16:00,70.9,69.1,29.92,South,172,0.0,0.0,94,0.00,,,0.04,Wunderground v.1.15,2013-07-27 06:16:00,
2013-07-27 02:21:00,70.9,69.1,29.92,South,172,0.0,0.0,94,0.00,,,0.04,Wunderground v.1.15,2013-07-27 06:21:00,
2013-07-27 02:26:00,70.8,69.0,29.92,South,172,0.0,1.0,94,0.00,,,0.04,Wunderground v.1.15,2013-07-27 06:26:00,
2013-07-27 02:30:00,69.6,69.3,29.92,SE,135,0.0,3.0,99,0.01,,,-99.99,WeatherLink 6.0.0,2013-07-27 06:30:00,
2013-07-27 02:31:00,70.9,69.1,29.91,South,172,0.0,0.0,94,0.00,,,0.04,Wunderground v.1.15,2013-07-27 06:31:00,
2013-07-27 02:36:00,71.0,69.2,29.91,South,171,0.0,1.0,94,0.00,,,0.04,Wunderground v.1.15,2013-07-27 06:36:00,
2013-07-27 02:41:00,71.1,69.0,29.91,SSE,151,0.0,0.0,93,0.00,,,0.04,Wunderground v.1.15,2013-07-27 06:41:00,
2013-07-27 02:46:00,71.2,69.1,29.91,SSE,151,0.0,1.0,93,0.00,,,0.04,Wunderground v.1.15,2013-07-27 06:46:00,
2013-07-27 02:51:00,71.3,69.2,29.91,SSE,150,0.0,0.0,93,0.00,,,0.04,Wunderground v.1.15,2013-07-27 06:51:00,
2013-07-27 02:56:00,71.3,69.2,29.91,SSE,150,0.0,2.0,93,0.00,,,0.04,Wunderground v.1.15,2013-07-27 06:56:00,
2013-07-27 03:00:00,70.4,70.1,29.90,East,90,0.0,3.0,99,0.03,,,-99.99,WeatherLink 6.0.0,2013-07-27 07:00:00,
2013-07-27 03:01:00,71.3,69.2,29.91,ESE,112,0.0,4.0,93,0.00,,,0.04,Wunderground v.1.15,2013-07-27 07:01:00,
2013-07-27 03:06:00,71.3,69.2,29.90,SE,142,0.0,4.0,93,0.00,,,0.04,Wunderground v.1.15,2013-07-27 07:06:00,
2013-07-27 03:11:00,71.3,69.2,29.90,East,98,0.0,1.0,93,0.00,,,0.04,Wunderground v.1.15,2013-07-27 07:11:00,
2013-07-27 03:16:00,71.3,69.2,29.91,East,98,0.0,1.0,93,0.00,,,0.04,Wunderground v.1.15,2013-07-27 07:16:00,
2013-07-27 03:21:00,71.3,69.2,29.91,East,98,0.0,0.0,93,0.00,,,0.04,Wunderground v.1.15,2013-07-27 07:21:00,
2013-07-27 03:27:00,71.3,69.5,29.91,East,99,0.0,0.0,94,0.00,,,0.04,Wunderground v.1.15,2013-07-27 07:27:00,
2013-07-27 03:30:00,71.2,70.6,29.90,ESE,112,0.0,4.0,98,0.02,,,-99.99,WeatherLink 6.0.0,2013-07-27 07:30:00,
2013-07-27 03:32:00,71.3,69.5,29.91,SSE,161,0.0,3.0,94,0.00,,,0.04,Wunderground v.1.15,2013-07-27 07:32:00,
2013-07-27 03:37:00,71.3,69.5,29.91,SSE,162,0.0,3.0,94,0.00,,,0.04,Wunderground v.1.15,2013-07-27 07:37:00,
2013-07-27 03:42:00,71.2,69.4,29.91,SSE,161,0.0,0.0,94,0.00,,,0.05,Wunderground v.1.15,2013-07-27 07:42:00,
2013-07-27 03:47:00,71.0,69.5,29.91,SSE,162,0.0,0.0,95,0.00,,,0.05,Wunderground v.1.15,2013-07-27 07:47:00,
2013-07-27 03:52:00,71.0,69.5,29.90,SSE,162,0.0,0.0,95,0.00,,,0.05,Wunderground v.1.15,2013-07-27 07:52:00,
2013-07-27 03:57:00,70.9,69.4,29.90,SSE,161,0.0,0.0,95,0.00,,,0.05,Wunderground v.1.15,2013-07-27 07:57:00,
2013-07-27 04:00:00,73.4,72.5,29.89,ESE,112,1.0,5.0,97,0.00,,,-99.99,WeatherLink 6.0.0,2013-07-27 08:00:00,
2013-07-27 04:02:00,70.7,69.2,29.90,SSE,162,0.0,0.0,95,0.00,,,0.05,Wunderground v.1.15,2013-07-27 08:02:00,
2013-07-27 04:07:00,70.5,69.0,29.90,SW,219,0.0,2.0,95,0.00,,,0.05,Wunderground v.1.15,2013-07-27 08:07:00,
2013-07-27 04:12:00,70.3,69.1,29.90,SW,219,0.0,0.0,96,0.00,,,0.05,Wunderground v.1.15,2013-07-27 08:12:00,
2013-07-27 04:17:00,70.2,69.0,29.89,SW,219,0.0,0.0,96,0.00,,,0.05,Wunderground v.1.15,2013-07-27 08:17:00,
2013-07-27 04:22:00,70.0,68.5,29.90,SW,219,0.0,1.0,95,0.00,,,0.05,Wunderground v.1.15,2013-07-27 08:22:00,
2013-07-27 04:27:00,69.9,68.7,29.90,SW,219,0.0,1.0,96,0.00,,,0.05,Wunderground v.1.15,2013-07-27 08:27:00,
2013-07-27 04:30:00,77.9,74.4,29.86,ESE,112,1.0,7.0,89,0.00,,,-99.99,WeatherLink 6.0.0,2013-07-27 08:30:00,
2013-07-27 04:32:00,69.8,68.6,29.90,SW,219,0.0,0.0,96,0.00,,,0.05,Wunderground v.1.15,2013-07-27 08:32:00,
2013-07-27 04:37:00,69.7,68.5,29.90,SW,219,0.0,0.0,96,0.00,,,0.05,Wunderground v.1.15,2013-07-27 08:37:00,
2013-07-27 04:42:00,69.6,68.4,29.90,SW,219,1.0,1.0,96,0.00,,,0.05,Wunderground v.1.15,2013-07-27 08:42:00,
2013-07-27 04:47:00,69.5,68.3,29.90,SW,219,0.0,1.0,96,0.00,,,0.05,Wunderground v.1.15,2013-07-27 08:47:00,
2013-07-27 04:52:00,69.4,68.2,29.90,SW,219,0.0,0.0,96,0.00,,,0.05,Wunderground v.1.15,2013-07-27 08:52:00,
2013-07-27 04:57:00,69.5,68.3,29.90,SW,219,0.0,0.0,96,0.00,,,0.06,Wunderground v.1.15,2013-07-27 08:57:00,
2013-07-27 05:00:00,78.6,73.0,29.86,SE,135,0.0,3.0,83,0.00,,,-99.99,WeatherLink 6.0.0,2013-07-27 09:00:00,
2013-07-27 05:03:00,69.5,68.6,29.90,SSW,209,1.0,1.0,97,0.14,,,0.07,Wunderground v.1.15,2013-07-27 09:03:00,
2013-07-27 05:08:00,69.4,68.5,29.90,SSW,209,0.0,1.0,97,0.17,,,0.09,Wunderground v.1.15,2013-07-27 09:08:00,
2013-07-27 05:13:00,69.4,68.5,29.91,SSW,209,0.0,0.0,97,0.12,,,0.09,Wunderground v.1.15,2013-07-27 09:13:00,
2013-07-27 05:18:00,69.4,68.5,29.90,SSW,209,0.0,0.0,97,0.06,,,0.10,Wunderground v.1.15,2013-07-27 09:18:00,
2013-07-27 05:23:00,69.4,68.5,29.90,SSW,209,0.0,0.0,97,0.06,,,0.10,Wunderground v.1.15,2013-07-27 09:23:00,
2013-07-27 05:28:00,69.3,68.4,29.91,SSW,209,0.0,1.0,97,1.20,,,0.13,Wunderground v.1.15,2013-07-27 09:28:00,
2013-07-27 05:30:00,78.6,73.7,29.86,SE,135,0.0,3.0,85,0.00,,,-99.99,WeatherLink 6.0.0,2013-07-27 09:30:00,
2013-07-27 05:33:00,69.3,68.4,29.91,SSW,209,0.0,1.0,97,0.90,,,0.23,Wunderground v.1.15,2013-07-27 09:33:00,
2013-07-27 05:38:00,69.3,68.4,29.92,SSW,209,0.0,1.0,97,0.63,,,0.29,Wunderground v.1.15,2013-07-27 09:38:00,
2013-07-27 05:43:00,69.2,68.3,29.91,SSW,202,0.0,2.0,97,3.20,,,0.48,Wunderground v.1.15,2013-07-27 09:43:00,
2013-07-27 05:48:00,69.1,68.5,29.92,SSW,202,0.0,2.0,98,3.00,,,0.67,Wunderground v.1.15,2013-07-27 09:48:00,
2013-07-27 05:53:00,69.0,68.1,29.92,SSW,202,0.0,0.0,97,1.73,,,0.80,Wunderground v.1.15,2013-07-27 09:53:00,
2013-07-27 05:58:00,69.0,68.1,29.92,SSW,192,0.0,4.0,97,4.57,,,0.94,Wunderground v.1.15,2013-07-27 09:58:00,
2013-07-27 06:00:00,80.6,73.5,29.84,SE,135,1.0,5.0,79,0.00,,,-99.99,WeatherLink 6.0.0,2013-07-27 10:00:00,
2013-07-27 06:04:00,68.5,67.6,29.91,SSW,192,2.0,2.0,97,0.33,,,1.04,Wunderground v.1.15,2013-07-27 10:04:00,
2013-07-27 06:09:00,67.9,67.0,29.90,SSW,192,0.0,3.0,97,0.34,,,1.08,Wunderground v.1.15,2013-07-27 10:09:00,
2013-07-27 06:14:00,67.5,66.6,29.91,SSW,192,0.0,3.0,97,0.20,,,1.10,Wunderground v.1.15,2013-07-27 10:14:00,
2013-07-27 06:19:00,67.4,66.5,29.92,South,191,0.0,3.0,97,0.60,,,1.14,Wunderground v.1.15,2013-07-27 10:19:00,
2013-07-27 06:24:00,67.3,66.7,29.92,SSW,192,0.0,0.0,98,1.10,,,1.22,Wunderground v.1.15,2013-07-27 10:24:00,
2013-07-27 06:29:00,67.2,66.6,29.93,SSW,192,0.0,1.0,98,0.52,,,1.34,Wunderground v.1.15,2013-07-27 10:29:00,
2013-07-27 06:30:00,78.7,72.7,29.84,ESE,112,1.0,6.0,82,0.00,,,-99.99,WeatherLink 6.0.0,2013-07-27 10:30:00,
2013-07-27 06:34:00,67.2,66.6,29.93,SSW,192,0.0,0.0,98,2.04,,,1.52,Wunderground v.1.15,2013-07-27 10:34:00,
2013-07-27 06:39:00,67.1,66.5,29.92,South,191,0.0,0.0,98,0.91,,,1.61,Wunderground v.1.15,2013-07-27 10:39:00,
2013-07-27 06:44:00,67.2,66.6,29.92,SSW,192,0.0,0.0,98,0.15,,,1.62,Wunderground v.1.15,2013-07-27 10:44:00,
2013-07-27 06:49:00,67.1,66.5,29.92,SSW,192,0.0,0.0,98,1.72,,,1.65,Wunderground v.1.15,2013-07-27 10:49:00,
2013-07-27 06:54:00,67.2,66.6,29.92,South,191,0.0,1.0,98,0.26,,,1.69,Wunderground v.1.15,2013-07-27 10:54:00,
2013-07-27 06:59:00,67.2,66.6,29.93,SSW,192,0.0,1.0,98,0.08,,,1.69,Wunderground v.1.15,2013-07-27 10:59:00,
2013-07-27 07:00:00,77.2,72.7,29.85,ESE,112,2.0,9.0,86,0.00,,,-99.99,WeatherLink 6.0.0,2013-07-27 11:00:00,
2013-07-27 07:04:00,67.3,66.7,29.92,SSW,192,0.0,0.0,98,0.05,,,1.69,Wunderground v.1.15,2013-07-27 11:04:00,
2013-07-27 07:09:00,67.4,66.8,29.92,South,191,0.0,0.0,98,0.00,,,1.69,Wunderground v.1.15,2013-07-27 11:09:00,
2013-07-27 07:14:00,67.5,66.9,29.93,SSW,192,0.0,0.0,98,0.00,,,1.69,Wunderground v.1.15,2013-07-27 11:14:00,
2013-07-27 07:19:00,67.5,66.9,29.92,SSW,192,0.0,1.0,98,0.00,,,1.69,Wunderground v.1.15,2013-07-27 11:19:00,
2013-07-27 07:24:00,67.7,67.1,29.92,South,191,0.0,0.0,98,0.00,,,1.69,Wunderground v.1.15,2013-07-27 11:24:00,
2013-07-27 07:29:00,67.7,67.1,29.93,South,191,0.0,1.0,98,0.00,,,1.69,Wunderground v.1.15,2013-07-27 11:29:00,
2013-07-27 07:30:00,75.7,71.9,29.85,ESE,112,3.0,9.0,88,0.00,,,-99.99,WeatherLink 6.0.0,2013-07-27 11:30:00,
2013-07-27 07:34:00,67.8,67.2,29.92,NNE,32,0.0,5.0,98,0.00,,,1.69,Wunderground v.1.15,2013-07-27 11:34:00,
2013-07-27 07:39:00,67.9,67.3,29.92,NNE,32,0.0,5.0,98,0.00,,,1.69,Wunderground v.1.15,2013-07-27 11:39:00,
2013-07-27 07:44:00,67.9,67.3,29.92,ENE,65,3.0,4.0,98,0.00,,,1.69,Wunderground v.1.15,2013-07-27 11:44:00,
2013-07-27 07:49:00,68.0,67.4,29.92,ESE,122,3.0,5.0,98,0.00,,,1.69,Wunderground v.1.15,2013-07-27 11:49:00,
2013-07-27 07:54:00,67.9,67.3,29.92,ESE,105,0.0,3.0,98,0.00,,,1.69,Wunderground v.1.15,2013-07-27 11:54:00,
2013-07-27 07:59:00,68.0,67.7,29.92,ESE,105,0.0,3.0,99,0.00,,,1.69,Wunderground v.1.15,2013-07-27 11:59:00,
2013-07-27 08:00:00,74.3,70.8,29.85,ESE,112,3.0,11.0,89,0.00,,,-99.99,WeatherLink 6.0.0,2013-07-27 12:00:00,
2013-07-27 08:04:00,68.1,67.8,29.92,ESE,113,4.0,4.0,99,0.00,,,1.69,Wunderground v.1.15,2013-07-27 12:04:00,
2013-07-27 08:09:00,68.2,67.9,29.92,ESE,121,1.0,5.0,99,0.16,,,1.71,Wunderground v.1.15,2013-07-27 12:09:00,
2013-07-27 08:14:00,68.2,67.6,29.93,East,98,2.0,3.0,98,0.07,,,1.71,Wunderground v.1.15,2013-07-27 12:14:00,
2013-07-27 08:19:00,68.3,67.7,29.93,East,98,0.0,3.0,98,0.04,,,1.71,Wunderground v.1.15,2013-07-27 12:19:00,
2013-07-27 08:24:00,68.3,67.7,29.92,East,101,1.0,2.0,98,0.00,,,1.71,Wunderground v.1.15,2013-07-27 12:24:00,
2013-07-27 08:29:00,68.3,67.7,29.93,East,101,0.0,0.0,98,0.00,,,1.71,Wunderground v.1.15,2013-07-27 12:29:00,
2013-07-27 08:30:00,73.6,69.8,29.85,ESE,112,3.0,11.0,88,0.00,,,-99.99,WeatherLink 6.0.0,2013-07-27 12:30:00,
2013-07-27 08:34:00,68.3,67.7,29.93,East,101,0.0,1.0,98,0.00,,,1.71,Wunderground v.1.15,2013-07-27 12:34:00,
2013-07-27 08:39:00,68.4,67.8,29.93,East,101,0.0,0.0,98,0.00,,,1.71,Wunderground v.1.15,2013-07-27 12:39:00,
2013-07-27 08:44:00,68.4,67.8,29.93,East,101,0.0,1.0,98,0.00,,,1.71,Wunderground v.1.15,2013-07-27 12:44:00,
2013-07-27 08:50:00,68.5,68.2,29.93,East,101,0.0,0.0,99,0.00,,,1.71,Wunderground v.1.15,2013-07-27 12:50:00,
2013-07-27 08:55:00,68.5,68.2,29.93,East,101,0.0,0.0,99,0.35,,,1.73,Wunderground v.1.15,2013-07-27 12:55:00,
2013-07-27 09:00:00,68.6,68.3,29.93,East,101,0.0,0.0,99,0.15,,,1.74,Wunderground v.1.15,2013-07-27 13:00:00,
2013-07-27 09:05:00,68.6,68.3,29.93,East,100,1.0,2.0,99,0.15,,,1.75,Wunderground v.1.15,2013-07-27 13:05:00,
2013-07-27 09:10:00,68.6,68.3,29.92,ESE,102,3.0,3.0,99,0.12,,,1.76,Wunderground v.1.15,2013-07-27 13:10:00,
2013-07-27 09:15:00,68.7,68.4,29.93,ESE,103,0.0,3.0,99,0.06,,,1.76,Wunderground v.1.15,2013-07-27 13:15:00,
2013-07-27 09:20:00,68.7,68.4,29.93,ESE,108,0.0,1.0,99,0.04,,,1.76,Wunderground v.1.15,2013-07-27 13:20:00,
2013-07-27 09:25:00,68.7,68.4,29.93,ESE,107,1.0,2.0,99,0.00,,,1.76,Wunderground v.1.15,2013-07-27 13:25:00,
2013-07-27 09:30:00,68.6,68.3,29.93,ESE,110,0.0,1.0,99,0.00,,,1.77,Wunderground v.1.15,2013-07-27 13:30:00,
2013-07-27 09:35:00,68.6,68.3,29.93,ESE,110,0.0,1.0,99,0.08,,,1.78,Wunderground v.1.15,2013-07-27 13:35:00,
2013-07-27 09:40:00,68.6,68.3,29.93,ESE,110,0.0,0.0,99,0.11,,,1.79,Wunderground v.1.15,2013-07-27 13:40:00,
2013-07-27 09:45:00,68.6,68.3,29.93,ESE,110,0.0,0.0,99,0.11,,,1.80,Wunderground v.1.15,2013-07-27 13:45:00,
2013-07-27 09:50:00,68.6,68.3,29.93,ESE,110,0.0,0.0,99,0.19,,,1.81,Wunderground v.1.15,2013-07-27 13:50:00,
2013-07-27 09:55:00,68.8,68.5,29.93,ESE,110,0.0,1.0,99,0.13,,,1.82,Wunderground v.1.15,2013-07-27 13:55:00,
2013-07-27 10:00:00,68.9,68.6,29.93,ESE,110,0.0,1.0,99,0.07,,,1.82,Wunderground v.1.15,2013-07-27 14:00:00,
2013-07-27 10:05:00,68.9,68.6,29.92,ESE,110,0.0,2.0,99,0.04,,,1.82,Wunderground v.1.15,2013-07-27 14:05:00,
2013-07-27 10:10:00,68.9,68.6,29.92,ESE,110,0.0,0.0,99,0.04,,,1.83,Wunderground v.1.15,2013-07-27 14:10:00,
2013-07-27 10:15:00,69.0,68.7,29.92,ESE,110,0.0,0.0,99,0.06,,,0.01,Wunderground v.1.15,2013-07-27 14:15:00,
2013-07-27 10:20:00,69.1,68.8,29.92,ESE,110,0.0,0.0,99,0.06,,,0.01,Wunderground v.1.15,2013-07-27 14:20:00,
2013-07-27 10:25:00,69.3,69.0,29.92,ESE,110,0.0,0.0,99,0.06,,,0.01,Wunderground v.1.15,2013-07-27 14:25:00,
2013-07-27 10:30:00,69.4,69.1,29.92,ESE,110,0.0,0.0,99,0.04,,,0.01,Wunderground v.1.15,2013-07-27 14:30:00,
2013-07-27 10:35:00,69.4,69.1,29.92,ESE,110,0.0,1.0,99,0.00,,,0.01,Wunderground v.1.15,2013-07-27 14:35:00,
2013-07-27 10:40:00,69.4,69.1,29.92,ESE,110,0.0,0.0,99,0.00,,,0.02,Wunderground v.1.15,2013-07-27 14:40:00,
2013-07-27 10:45:00,69.7,69.4,29.92,ESE,110,0.0,0.0,99,0.09,,,0.03,Wunderground v.1.15,2013-07-27 14:45:00,
2013-07-27 10:50:00,69.8,69.5,29.92,ESE,110,0.0,0.0,99,0.20,,,0.04,Wunderground v.1.15,2013-07-27 14:50:00,
2013-07-27 10:55:00,69.9,69.6,29.93,ESE,110,0.0,1.0,99,0.09,,,0.05,Wunderground v.1.15,2013-07-27 14:55:00,
2013-07-27 11:00:00,69.9,69.6,29.93,ESE,110,0.0,0.0,99,0.12,,,0.06,Wunderground v.1.15,2013-07-27 15:00:00,
2013-07-27 11:05:00,70.0,69.7,29.92,ESE,110,0.0,1.0,99,0.09,,,0.06,Wunderground v.1.15,2013-07-27 15:05:00,
2013-07-27 11:10:00,70.1,69.8,29.92,SE,130,0.0,1.0,99,0.23,,,0.08,Wunderground v.1.15,2013-07-27 15:10:00,
2013-07-27 11:15:00,70.3,70.0,29.92,SE,130,0.0,1.0,99,0.10,,,0.09,Wunderground v.1.15,2013-07-27 15:15:00,
2013-07-27 11:20:00,70.2,69.9,29.91,ESE,107,0.0,1.0,99,0.09,,,0.09,Wunderground v.1.15,2013-07-27 15:20:00,
2013-07-27 11:25:00,70.0,69.7,29.92,ESE,107,0.0,1.0,99,0.05,,,0.09,Wunderground v.1.15,2013-07-27 15:25:00,
2013-07-27 11:30:00,69.9,69.6,29.92,ESE,122,0.0,0.0,99,0.04,,,0.09,Wunderground v.1.15,2013-07-27 15:30:00,
2013-07-27 11:35:00,69.9,69.6,29.91,East,98,1.0,4.0,99,0.00,,,0.09,Wunderground v.1.15,2013-07-27 15:35:00,
2013-07-27 11:40:00,69.8,69.5,29.91,East,98,0.0,0.0,99,0.00,,,0.09,Wunderground v.1.15,2013-07-27 15:40:00,
2013-07-27 11:45:00,69.8,69.5,29.92,East,98,0.0,1.0,99,0.00,,,0.09,Wunderground v.1.15,2013-07-27 15:45:00,
2013-07-27 11:50:00,69.9,69.6,29.92,SSE,167,0.0,2.0,99,0.00,,,0.09,Wunderground v.1.15,2013-07-27 15:50:00,
2013-07-27 11:55:00,69.9,69.6,29.92,ESE,109,0.0,2.0,99,0.00,,,0.09,Wunderground v.1.15,2013-07-27 15:55:00,
2013-07-27 12:00:00,69.8,69.5,29.92,ESE,107,0.0,1.0,99,0.00,,,0.09,Wunderground v.1.15,2013-07-27 16:00:00,
2013-07-27 12:05:00,69.8,69.5,29.93,ESE,121,1.0,3.0,99,0.00,,,0.09,Wunderground v.1.15,2013-07-27 16:05:00,
2013-07-27 12:10:00,69.7,69.4,29.93,SE,132,0.0,0.0,99,0.00,,,0.09,Wunderground v.1.15,2013-07-27 16:10:00,
2013-07-27 12:15:00,69.7,69.4,29.92,SE,126,0.0,3.0,99,0.00,,,0.10,Wunderground v.1.15,2013-07-27 16:15:00,
2013-07-27 12:20:00,69.6,69.3,29.92,SE,126,0.0,1.0,99,0.00,,,0.10,Wunderground v.1.15,2013-07-27 16:20:00,
2013-07-27 12:25:00,69.6,69.3,29.92,SE,126,0.0,1.0,99,0.00,,,0.10,Wunderground v.1.15,2013-07-27 16:25:00,
2013-07-27 12:30:00,69.9,68.7,29.89,SE,135,0.0,2.0,96,0.01,,,-99.99,WeatherLink 6.0.0,2013-07-27 16:30:00,
2013-07-27 12:31:00,69.8,69.5,29.92,SE,126,0.0,0.0,99,0.00,,,0.10,Wunderground v.1.15,2013-07-27 16:31:00,
2013-07-27 12:36:00,69.7,69.4,29.92,SE,128,0.0,1.0,99,0.00,,,0.10,Wunderground v.1.15,2013-07-27 16:36:00,
2013-07-27 12:41:00,69.6,69.3,29.92,SE,135,0.0,0.0,99,0.00,,,0.10,Wunderground v.1.15,2013-07-27 16:41:00,
2013-07-27 12:46:00,69.6,69.3,29.92,East,88,0.0,3.0,99,0.00,,,0.11,Wunderground v.1.15,2013-07-27 16:46:00,
2013-07-27 12:51:00,69.8,69.2,29.91,East,89,0.0,0.0,98,0.00,,,0.11,Wunderground v.1.15,2013-07-27 16:51:00,
2013-07-27 12:56:00,69.9,69.6,29.90,East,89,0.0,0.0,99,0.00,,,0.11,Wunderground v.1.15,2013-07-27 16:56:00,
2013-07-27 13:00:00,69.9,69.0,29.89,SE,135,0.0,1.0,97,0.00,,,-99.99,WeatherLink 6.0.0,2013-07-27 17:00:00,
2013-07-27 13:01:00,70.4,70.1,29.90,East,88,0.0,1.0,99,0.00,,,0.11,Wunderground v.1.15,2013-07-27 17:01:00,
2013-07-27 13:06:00,70.4,70.1,29.90,East,100,0.0,2.0,99,0.00,,,0.12,Wunderground v.1.15,2013-07-27 17:06:00,
2013-07-27 13:11:00,70.6,70.3,29.90,ESE,105,0.0,0.0,99,0.00,,,0.12,Wunderground v.1.15,2013-07-27 17:11:00,
2013-07-27 13:17:00,71.2,70.9,29.91,ESE,110,0.0,1.0,99,0.00,,,0.12,Wunderground v.1.15,2013-07-27 17:17:00,
2013-07-27 13:22:00,71.3,71.0,29.91,East,81,2.0,2.0,99,0.00,,,0.12,Wunderground v.1.15,2013-07-27 17:22:00,
2013-07-27 13:27:00,71.3,71.0,29.90,East,83,0.0,3.0,99,0.00,,,0.12,Wunderground v.1.15,2013-07-27 17:27:00,
2013-07-27 13:30:00,69.8,68.6,29.88,SE,135,0.0,1.0,96,0.00,,,-99.99,WeatherLink 6.0.0,2013-07-27 17:30:00,
2013-07-27 13:32:00,71.4,71.1,29.90,ESE,109,0.0,2.0,99,0.00,,,0.12,Wunderground v.1.15,2013-07-27 17:32:00,
2013-07-27 13:37:00,71.3,71.0,29.90,SSE,148,0.0,2.0,99,0.00,,,0.12,Wunderground v.1.15,2013-07-27 17:37:00,
2013-07-27 13:42:00,71.2,70.6,29.90,SE,135,0.0,3.0,98,0.00,,,0.12,Wunderground v.1.15,2013-07-27 17:42:00,
2013-07-27 13:47:00,71.8,71.2,29.90,ESE,117,2.0,3.0,98,0.00,,,0.12,Wunderground v.1.15,2013-07-27 17:47:00,
2013-07-27 13:52:00,72.7,72.4,29.89,ESE,109,0.0,3.0,99,0.00,,,0.12,Wunderground v.1.15,2013-07-27 17:52:00,
2013-07-27 13:57:00,73.0,72.7,29.89,ESE,109,3.0,3.0,99,0.00,,,0.12,Wunderground v.1.15,2013-07-27 17:57:00,
2013-07-27 14:00:00,69.6,68.4,29.88,SE,135,0.0,2.0,96,0.00,,,-99.99,WeatherLink 6.0.0,2013-07-27 18:00:00,
2013-07-27 14:02:00,73.2,72.6,29.88,ESE,109,0.0,1.0,98,0.00,,,0.12,Wunderground v.1.15,2013-07-27 18:02:00,
2013-07-27 14:07:00,73.3,72.7,29.88,ESE,109,1.0,2.0,98,0.00,,,0.12,Wunderground v.1.15,2013-07-27 18:07:00,
2013-07-27 14:12:00,73.4,72.5,29.88,East,97,4.0,6.0,97,0.00,,,0.12,Wunderground v.1.15,2013-07-27 18:12:00,
2013-07-27 14:17:00,73.4,72.2,29.88,ESE,109,0.0,6.0,96,0.00,,,0.12,Wunderground v.1.15,2013-07-27 18:17:00,
2013-07-27 14:22:00,74.4,73.5,29.88,East,94,1.0,6.0,97,0.00,,,0.12,Wunderground v.1.15,2013-07-27 18:22:00,
2013-07-27 14:27:00,74.9,72.4,29.88,SE,145,4.0,6.0,92,0.00,,,0.12,Wunderground v.1.15,2013-07-27 18:27:00,
2013-07-27 14:30:00,69.5,68.3,29.88,SE,135,0.0,4.0,96,0.00,,,-99.99,WeatherLink 6.0.0,2013-07-27 18:30:00,
2013-07-27 14:32:00,75.4,72.9,29.87,SSE,150,0.0,2.0,92,0.00,,,0.12,Wunderground v.1.15,2013-07-27 18:32:00,
2013-07-27 14:37:00,76.9,74.4,29.86,SSE,148,0.0,2.0,92,0.00,,,0.12,Wunderground v.1.15,2013-07-27 18:37:00,
2013-07-27 14:42:00,78.7,74.8,29.86,SE,141,0.0,2.0,88,0.00,,,0.12,Wunderground v.1.15,2013-07-27 18:42:00,
2013-07-27 14:47:00,79.6,75.0,29.86,SE,141,0.0,2.0,86,0.00,,,0.12,Wunderground v.1.15,2013-07-27 18:47:00,
2013-07-27 14:52:00,80.0,74.0,29.86,SE,142,0.0,0.0,82,0.00,,,0.12,Wunderground v.1.15,2013-07-27 18:52:00,
2013-07-27 14:57:00,79.7,73.3,29.86,SE,142,0.0,2.0,81,0.00,,,0.12,Wunderground v.1.15,2013-07-27 18:57:00,
2013-07-27 15:00:00,69.3,68.4,29.87,East,90,0.0,2.0,97,0.00,,,-99.99,WeatherLink 6.0.0,2013-07-27 19:00:00,
2013-07-27 15:02:00,78.7,72.7,29.86,SE,141,0.0,2.0,82,0.00,,,0.12,Wunderground v.1.15,2013-07-27 19:02:00,
2013-07-27 15:03:00,78.7,73.1,29.86,SE,142,0.0,2.0,83,0.00,,,0.12,Wunderground v.1.15,2013-07-27 19:03:00,
2013-07-27 15:08:00,78.5,73.3,29.86,SE,142,0.0,2.0,84,0.00,,,0.12,Wunderground v.1.15,2013-07-27 19:08:00,
2013-07-27 15:13:00,78.7,72.7,29.86,SE,141,0.0,2.0,82,0.00,,,0.12,Wunderground v.1.15,2013-07-27 19:13:00,
2013-07-27 15:18:00,78.7,73.1,29.86,SE,142,2.0,3.0,83,0.00,,,0.12,Wunderground v.1.15,2013-07-27 19:18:00,
2013-07-27 15:23:00,78.7,72.4,29.86,SE,141,0.0,2.0,81,0.00,,,0.12,Wunderground v.1.15,2013-07-27 19:23:00,
2013-07-27 15:28:00,78.7,72.4,29.86,SSE,147,0.0,2.0,81,0.00,,,0.12,Wunderground v.1.15,2013-07-27 19:28:00,
2013-07-27 15:30:00,69.2,68.3,29.86,East,90,0.0,2.0,97,0.00,,,-99.99,WeatherLink 6.0.0,2013-07-27 19:30:00,
2013-07-27 15:33:00,78.9,73.3,29.86,SE,146,0.0,0.0,83,0.00,,,0.12,Wunderground v.1.15,2013-07-27 19:33:00,
2013-07-27 15:38:00,78.7,73.5,29.86,SE,146,0.0,0.0,84,0.00,,,0.12,Wunderground v.1.15,2013-07-27 19:38:00,
2013-07-27 15:44:00,78.5,72.9,29.86,SE,142,1.0,2.0,83,0.00,,,0.12,Wunderground v.1.15,2013-07-27 19:44:00,
2013-07-27 15:48:00,78.7,72.7,29.85,SE,136,0.0,4.0,82,0.00,,,0.12,Wunderground v.1.15,2013-07-27 19:48:00,
2013-07-27 15:54:00,79.0,72.7,29.85,SE,130,0.0,5.0,81,0.00,,,0.12,Wunderground v.1.15,2013-07-27 19:54:00,
2013-07-27 15:58:00,79.1,72.8,29.85,SE,129,0.0,5.0,81,0.00,,,0.12,Wunderground v.1.15,2013-07-27 19:58:00,
2013-07-27 16:00:00,69.3,68.7,29.86,East,90,0.0,1.0,98,0.00,,,-99.99,WeatherLink 6.0.0,2013-07-27 20:00:00,
2013-07-27 16:04:00,79.4,73.1,29.84,East,94,2.0,3.0,81,0.00,,,0.12,Wunderground v.1.15,2013-07-27 20:04:00,
2013-07-27 16:09:00,80.2,73.5,29.84,East,94,0.0,3.0,80,0.00,,,0.12,Wunderground v.1.15,2013-07-27 20:09:00,
2013-07-27 16:14:00,81.0,72.7,29.84,SSE,153,0.0,3.0,76,0.00,,,0.12,Wunderground v.1.15,2013-07-27 20:14:00,
2013-07-27 16:19:00,81.0,73.1,29.84,SSE,154,0.0,3.0,77,0.00,,,0.12,Wunderground v.1.15,2013-07-27 20:19:00,
2013-07-27 16:24:00,80.4,73.3,29.84,WSW,238,1.0,2.0,79,0.00,,,0.12,Wunderground v.1.15,2013-07-27 20:24:00,
2013-07-27 16:29:00,79.9,72.8,29.84,SE,146,0.0,2.0,79,0.00,,,0.12,Wunderground v.1.15,2013-07-27 20:29:00,
2013-07-27 16:30:00,69.2,68.6,29.85,East,90,0.0,1.0,98,0.00,,,-99.99,WeatherLink 6.0.0,2013-07-27 20:30:00,
2013-07-27 16:34:00,79.5,72.4,29.84,ESE,118,3.0,5.0,79,0.00,,,0.12,Wunderground v.1.15,2013-07-27 20:34:00,
2013-07-27 16:39:00,78.9,72.9,29.84,ESE,121,0.0,6.0,82,0.00,,,0.12,Wunderground v.1.15,2013-07-27 20:39:00,
2013-07-27 16:44:00,78.7,72.7,29.84,ESE,115,9.0,9.0,82,0.00,,,0.12,Wunderground v.1.15,2013-07-27 20:44:00,
2013-07-27 16:49:00,78.2,73.0,29.84,SE,141,2.0,9.0,84,0.00,,,0.12,Wunderground v.1.15,2013-07-27 20:49:00,
2013-07-27 16:54:00,77.8,72.9,29.84,ESE,118,1.0,6.0,85,0.00,,,0.12,Wunderground v.1.15,2013-07-27 20:54:00,
2013-07-27 16:59:00,77.7,73.2,29.84,East,98,2.0,6.0,86,0.00,,,0.12,Wunderground v.1.15,2013-07-27 20:59:00,
2013-07-27 17:00:00,69.2,68.6,29.85,East,90,0.0,1.0,98,0.00,,,-99.99,WeatherLink 6.0.0,2013-07-27 21:00:00,
2013-07-27 17:04:00,77.6,72.7,29.85,SSE,157,2.0,4.0,85,0.00,,,0.12,Wunderground v.1.15,2013-07-27 21:04:00,
2013-07-27 17:09:00,77.3,72.8,29.85,SSE,157,0.0,5.0,86,0.00,,,0.12,Wunderground v.1.15,2013-07-27 21:09:00,
2013-07-27 17:14:00,76.8,72.3,29.85,East,95,2.0,7.0,86,0.00,,,0.12,Wunderground v.1.15,2013-07-27 21:14:00,
2013-07-27 17:19:00,76.5,72.3,29.85,ESE,107,4.0,7.0,87,0.00,,,0.12,Wunderground v.1.15,2013-07-27 21:19:00,
2013-07-27 17:24:00,76.2,71.7,29.86,ESE,107,4.0,5.0,86,0.00,,,0.12,Wunderground v.1.15,2013-07-27 21:24:00,
2013-07-27 17:29:00,76.1,71.9,29.86,East,96,1.0,7.0,87,0.00,,,0.12,Wunderground v.1.15,2013-07-27 21:29:00,
2013-07-27 17:30:00,69.2,68.6,29.84,East,90,0.0,2.0,98,0.00,,,-99.99,WeatherLink 6.0.0,2013-07-27 21:30:00,
2013-07-27 17:34:00,76.0,71.5,29.85,ESE,115,2.0,5.0,86,0.00,,,0.12,Wunderground v.1.15,2013-07-27 21:34:00,
2013-07-27 17:39:00,75.8,72.0,29.85,ESE,105,2.0,9.0,88,0.00,,,0.12,Wunderground v.1.15,2013-07-27 21:39:00,
2013-07-27 17:44:00,75.3,71.2,29.85,ESE,112,1.0,10.0,87,0.00,,,0.12,Wunderground v.1.15,2013-07-27 21:44:00,
2013-07-27 17:49:00,75.1,71.3,29.85,ESE,119,1.0,10.0,88,0.00,,,0.12,Wunderground v.1.15,2013-07-27 21:49:00,
2013-07-27 17:54:00,75.0,71.5,29.85,East,99,4.0,7.0,89,0.00,,,0.12,Wunderground v.1.15,2013-07-27 21:54:00,
2013-07-27 17:59:00,74.7,70.9,29.85,SE,130,7.0,8.0,88,0.00,,,0.12,Wunderground v.1.15,2013-07-27 21:59:00,
2013-07-27 18:00:00,69.2,68.6,29.84,East,90,0.0,1.0,98,0.00,,,-99.99,WeatherLink 6.0.0,2013-07-27 22:00:00,
2013-07-27 18:04:00,74.4,70.9,29.85,ESE,103,3.0,8.0,89,0.00,,,0.12,Wunderground v.1.15,2013-07-27 22:04:00,
2013-07-27 18:09:00,74.3,70.8,29.85,SSE,153,4.0,9.0,89,0.00,,,0.12,Wunderground v.1.15,2013-07-27 22:09:00,
2013-07-27 18:14:00,74.2,70.7,29.86,ESE,118,3.0,5.0,89,0.00,,,0.12,Wunderground v.1.15,2013-07-27 22:14:00,
2013-07-27 18:19:00,74.2,70.7,29.86,East,93,4.0,11.0,89,0.00,,,0.12,Wunderground v.1.15,2013-07-27 22:19:00,
2013-07-27 18:24:00,74.1,70.6,29.86,ESE,119,0.0,9.0,89,0.00,,,0.12,Wunderground v.1.15,2013-07-27 22:24:00,
2013-07-27 18:29:00,74.0,70.6,29.86,ESE,105,1.0,9.0,89,0.00,,,0.12,Wunderground v.1.15,2013-07-27 22:29:00,
2013-07-27 18:30:00,69.3,68.7,29.85,East,90,0.0,1.0,98,0.00,,,-99.99,WeatherLink 6.0.0,2013-07-27 22:30:00,
2013-07-27 18:34:00,73.8,70.4,29.86,ESE,117,1.0,10.0,89,0.00,,,0.12,Wunderground v.1.15,2013-07-27 22:34:00,
2013-07-27 18:39:00,73.7,69.9,29.85,East,99,4.0,10.0,88,0.00,,,0.12,Wunderground v.1.15,2013-07-27 22:39:00,
2013-07-27 18:44:00,73.5,70.1,29.86,SE,134,4.0,5.0,89,0.00,,,0.12,Wunderground v.1.15,2013-07-27 22:44:00,
2013-07-27 18:49:00,73.4,70.3,29.86,East,98,0.0,5.0,90,0.00,,,0.12,Wunderground v.1.15,2013-07-27 22:49:00,
2013-07-27 18:54:00,73.5,70.1,29.86,East,100,1.0,2.0,89,0.00,,,0.12,Wunderground v.1.15,2013-07-27 22:54:00,
2013-07-27 18:59:00,73.4,70.0,29.86,SE,144,1.0,4.0,89,0.00,,,0.12,Wunderground v.1.15,2013-07-27 22:59:00,
2013-07-27 19:00:00,69.3,68.7,29.85,East,90,0.0,1.0,98,0.00,,,-99.99,WeatherLink 6.0.0,2013-07-27 23:00:00,
2013-07-27 19:04:00,73.1,69.7,29.86,East,101,2.0,5.0,89,0.00,,,0.12,Wunderground v.1.15,2013-07-27 23:04:00,
2013-07-27 19:09:00,72.9,69.8,29.86,ESE,103,2.0,6.0,90,0.00,,,0.12,Wunderground v.1.15,2013-07-27 23:09:00,
2013-07-27 19:14:00,72.8,69.7,29.86,ESE,106,4.0,4.0,90,0.00,,,0.12,Wunderground v.1.15,2013-07-27 23:14:00,
2013-07-27 19:19:00,72.7,69.9,29.86,ESE,122,2.0,5.0,91,0.00,,,0.12,Wunderground v.1.15,2013-07-27 23:19:00,
2013-07-27 19:24:00,72.5,69.7,29.85,SSW,200,0.0,7.0,91,0.00,,,0.12,Wunderground v.1.15,2013-07-27 23:24:00,
2013-07-27 19:29:00,72.3,69.8,29.86,ESE,113,0.0,3.0,92,0.00,,,0.12,Wunderground v.1.15,2013-07-27 23:29:00,
2013-07-27 19:30:00,69.2,68.6,29.87,East,90,0.0,2.0,98,0.00,,,-99.99,WeatherLink 6.0.0,2013-07-27 23:30:00,
2013-07-27 19:35:00,72.2,69.7,29.86,SE,130,0.0,5.0,92,0.00,,,0.12,Wunderground v.1.15,2013-07-27 23:35:00,
2013-07-27 19:40:00,72.2,69.7,29.86,ESE,123,0.0,1.0,92,0.00,,,0.12,Wunderground v.1.15,2013-07-27 23:40:00,
2013-07-27 19:45:00,72.2,69.7,29.86,SE,129,3.0,3.0,92,0.00,,,0.12,Wunderground v.1.15,2013-07-27 23:45:00,
2013-07-27 19:50:00,72.1,69.6,29.86,ESE,107,2.0,5.0,92,0.00,,,0.12,Wunderground v.1.15,2013-07-27 23:50:00,
2013-07-27 19:55:00,71.9,69.4,29.86,ESE,105,3.0,6.0,92,0.00,,,0.12,Wunderground v.1.15,2013-07-27 23:55:00,
2013-07-27 20:00:00,71.7,69.3,29.86,ESE,111,3.0,3.0,92,0.00,,,0.12,Wunderground v.1.15,2013-07-28 00:00:00,
2013-07-27 20:05:00,71.5,69.1,29.86,ESE,110,0.0,3.0,92,0.00,,,0.12,Wunderground v.1.15,2013-07-28 00:05:00,
2013-07-27 20:10:00,71.3,68.9,29.86,SE,130,1.0,1.0,92,0.00,,,0.12,Wunderground v.1.15,2013-07-28 00:10:00,
2013-07-27 20:15:00,71.3,68.9,29.86,East,93,3.0,5.0,92,0.00,,,0.12,Wunderground v.1.15,2013-07-28 00:15:00,
2013-07-27 20:20:00,71.2,68.4,29.86,ESE,109,0.0,1.0,91,0.00,,,0.12,Wunderground v.1.15,2013-07-28 00:20:00,
2013-07-27 20:25:00,71.2,68.8,29.86,SSE,160,0.0,1.0,92,0.00,,,0.12,Wunderground v.1.15,2013-07-28 00:25:00,
2013-07-27 20:30:00,71.1,68.7,29.87,SSE,160,0.0,0.0,92,0.00,,,0.12,Wunderground v.1.15,2013-07-28 00:30:00,
2013-07-27 20:35:00,71.0,68.6,29.88,SSE,160,0.0,0.0,92,0.00,,,0.12,Wunderground v.1.15,2013-07-28 00:35:00,
2013-07-27 20:40:00,70.8,68.4,29.88,SSE,160,0.0,0.0,92,0.00,,,0.12,Wunderground v.1.15,2013-07-28 00:40:00,
2013-07-27 20:45:00,70.7,68.6,29.88,SSE,160,0.0,0.0,93,0.00,,,0.12,Wunderground v.1.15,2013-07-28 00:45:00,
2013-07-27 20:50:00,70.7,68.6,29.88,SSE,160,0.0,0.0,93,0.00,,,0.12,Wunderground v.1.15,2013-07-28 00:50:00,
2013-07-27 20:55:00,70.6,68.5,29.88,SSE,160,0.0,0.0,93,0.00,,,0.12,Wunderground v.1.15,2013-07-28 00:55:00,
2013-07-27 21:00:00,70.7,68.6,29.88,SSE,160,0.0,0.0,93,0.00,,,0.12,Wunderground v.1.15,2013-07-28 01:00:00,
2013-07-27 21:05:00,70.8,68.7,29.88,SSE,160,0.0,0.0,93,0.00,,,0.12,Wunderground v.1.15,2013-07-28 01:05:00,
2013-07-27 21:10:00,70.7,68.6,29.88,SSE,160,0.0,0.0,93,0.00,,,0.12,Wunderground v.1.15,2013-07-28 01:10:00,
2013-07-27 21:15:00,70.7,68.6,29.88,SSE,160,0.0,0.0,93,0.00,,,0.12,Wunderground v.1.15,2013-07-28 01:15:00,
2013-07-27 21:20:00,70.7,68.6,29.88,SSE,160,0.0,0.0,93,0.00,,,0.12,Wunderground v.1.15,2013-07-28 01:20:00,
2013-07-27 21:25:00,70.7,68.9,29.88,SSE,160,0.0,0.0,94,0.00,,,0.12,Wunderground v.1.15,2013-07-28 01:25:00,
2013-07-27 21:30:00,70.6,68.8,29.88,SSE,160,0.0,0.0,94,0.00,,,0.12,Wunderground v.1.15,2013-07-28 01:30:00,
2013-07-27 21:35:00,70.5,68.7,29.88,SSE,160,0.0,1.0,94,0.00,,,0.12,Wunderground v.1.15,2013-07-28 01:35:00,
2013-07-27 21:36:00,70.4,68.6,29.88,SSE,160,0.0,1.0,94,0.00,,,0.12,Wunderground v.1.15,2013-07-28 01:36:00,
2013-07-27 21:41:00,70.4,68.6,29.88,SSE,160,0.0,1.0,94,0.00,,,0.12,Wunderground v.1.15,2013-07-28 01:41:00,
2013-07-27 21:46:00,70.3,68.5,29.88,SSE,157,0.0,3.0,94,0.00,,,0.12,Wunderground v.1.15,2013-07-28 01:46:00,
2013-07-27 21:52:00,70.2,68.7,29.88,SSE,157,0.0,0.0,95,0.00,,,0.12,Wunderground v.1.15,2013-07-28 01:52:00,
2013-07-27 21:57:00,70.1,68.6,29.89,SSE,157,0.0,1.0,95,0.00,,,0.12,Wunderground v.1.15,2013-07-28 01:57:00,
2013-07-27 22:00:00,70.2,69.0,29.90,SE,135,0.0,3.0,96,0.00,,,-99.99,WeatherLink 6.0.0,2013-07-28 02:00:00,
2013-07-27 22:02:00,70.1,68.6,29.89,SE,142,1.0,1.0,95,0.00,,,0.12,Wunderground v.1.15,2013-07-28 02:02:00,
2013-07-27 22:07:00,70.0,68.5,29.89,SE,142,0.0,2.0,95,0.00,,,0.13,Wunderground v.1.15,2013-07-28 02:07:00,
2013-07-27 22:12:00,70.0,68.8,29.89,SE,142,0.0,2.0,96,0.00,,,0.13,Wunderground v.1.15,2013-07-28 02:12:00,
2013-07-27 22:17:00,69.9,68.7,29.89,SE,142,0.0,2.0,96,0.00,,,0.13,Wunderground v.1.15,2013-07-28 02:17:00,
2013-07-27 22:22:00,69.9,68.7,29.89,SE,141,0.0,0.0,96,0.00,,,0.13,Wunderground v.1.15,2013-07-28 02:22:00,
2013-07-27 22:27:00,69.9,68.7,29.89,SE,142,0.0,0.0,96,0.00,,,0.13,Wunderground v.1.15,2013-07-28 02:27:00,
2013-07-27 22:30:00,72.6,69.5,29.90,SE,135,0.0,7.0,90,0.00,,,-99.99,WeatherLink 6.0.0,2013-07-28 02:30:00,
2013-07-27 22:32:00,69.9,68.7,29.89,SE,142,0.0,0.0,96,0.00,,,0.13,Wunderground v.1.15,2013-07-28 02:32:00,
2013-07-27 22:37:00,69.9,68.7,29.89,SE,142,0.0,0.0,96,0.00,,,0.13,Wunderground v.1.15,2013-07-28 02:37:00,
2013-07-27 22:42:00,69.9,68.7,29.89,SE,141,0.0,0.0,96,0.00,,,0.13,Wunderground v.1.15,2013-07-28 02:42:00,
2013-07-27 22:47:00,69.9,68.7,29.89,SE,142,0.0,1.0,96,0.00,,,0.13,Wunderground v.1.15,2013-07-28 02:47:00,
2013-07-27 22:52:00,69.9,68.7,29.89,SE,142,0.0,0.0,96,0.00,,,0.13,Wunderground v.1.15,2013-07-28 02:52:00,
2013-07-27 22:57:00,69.9,68.7,29.89,SE,141,0.0,0.0,96,0.00,,,0.13,Wunderground v.1.15,2013-07-28 02:57:00,
2013-07-27 23:00:00,73.9,70.1,29.90,SE,135,0.0,5.0,88,0.00,,,-99.99,WeatherLink 6.0.0,2013-07-28 03:00:00,
2013-07-27 23:02:00,69.9,68.7,29.89,SE,142,0.0,0.0,96,0.00,,,0.13,Wunderground v.1.15,2013-07-28 03:02:00,
2013-07-27 23:07:00,69.9,68.7,29.89,SE,141,0.0,0.0,96,0.00,,,0.13,Wunderground v.1.15,2013-07-28 03:07:00,
2013-07-27 23:12:00,69.9,69.0,29.89,SE,141,0.0,0.0,97,0.00,,,0.13,Wunderground v.1.15,2013-07-28 03:12:00,
2013-07-27 23:17:00,69.9,68.7,29.89,SE,142,0.0,0.0,96,0.00,,,0.13,Wunderground v.1.15,2013-07-28 03:17:00,
2013-07-27 23:22:00,69.8,68.6,29.89,SE,142,0.0,1.0,96,0.00,,,0.13,Wunderground v.1.15,2013-07-28 03:22:00,
2013-07-27 23:27:00,69.8,68.6,29.89,SE,142,0.0,1.0,96,0.00,,,0.13,Wunderground v.1.15,2013-07-28 03:27:00,
2013-07-27 23:30:00,75.4,71.3,29.90,ESE,112,1.0,7.0,87,0.00,,,-99.99,WeatherLink 6.0.0,2013-07-28 03:30:00,
2013-07-27 23:32:00,69.8,68.6,29.89,SE,141,0.0,0.0,96,0.00,,,0.13,Wunderground v.1.15,2013-07-28 03:32:00,
2013-07-27 23:37:00,69.8,68.6,29.89,SE,142,0.0,0.0,96,0.00,,,0.13,Wunderground v.1.15,2013-07-28 03:37:00,
2013-07-27 23:42:00,69.8,68.6,29.88,SE,142,0.0,0.0,96,0.00,,,0.13,Wunderground v.1.15,2013-07-28 03:42:00,
2013-07-27 23:47:00,69.8,68.9,29.88,SE,141,0.0,1.0,97,0.00,,,0.13,Wunderground v.1.15,2013-07-28 03:47:00,
2013-07-27 23:52:00,69.7,68.8,29.88,SE,142,0.0,2.0,97,0.00,,,0.13,Wunderground v.1.15,2013-07-28 03:52:00,
2013-07-27 23:57:00,69.7,68.8,29.88,SE,142,0.0,2.0,97,0.00,,,0.13,Wunderground v.1.15,2013-07-28 03:57:00,